Year,Month,Day,Hour,Minute,Value (Times are PST for temperature in C)
2013,07,15,00,00,14.80
2013,07,15,00,01,14.80
2013,07,15,00,02,14.80
2013,07,15,00,03,14.80
2013,07,15,00,04,14.80
2013,07,15,00,05,14.70
2013,07,15,00,06,14.70
2013,07,15,00,07,14.70
2013,07,15,00,08,14.70
2013,07,15,00,09,14.60
2013,07,15,00,10,14.60
2013,07,15,00,11,14.60
2013,07,15,00,12,14.50
2013,07,15,00,13,14.50
2013,07,15,00,14,14.40
2013,07,15,00,15,14.40
2013,07,15,00,16,14.40
2013,07,15,00,17,14.30
2013,07,15,00,18,14.30
2013,07,15,00,19,14.20
2013,07,15,00,20,14.20
2013,07,15,00,21,14.20
2013,07,15,00,22,14.20
2013,07,15,00,23,14.10
2013,07,15,00,24,14.10
2013,07,15,00,25,14.10
2013,07,15,00,26,14.00
2013,07,15,00,27,13.90
2013,07,15,00,28,13.90
2013,07,15,00,29,13.90
2013,07,15,00,30,13.90
2013,07,15,00,31,13.90
2013,07,15,00,32,13.80
2013,07,15,00,33,13.80
2013,07,15,00,34,13.80
2013,07,15,00,35,13.80
2013,07,15,00,36,13.80
2013,07,15,00,37,13.80
2013,07,15,00,38,13.80
2013,07,15,00,39,13.80
2013,07,15,00,40,13.80
2013,07,15,00,41,13.80
2013,07,15,00,42,13.80
2013,07,15,00,43,13.80
2013,07,15,00,44,13.80
2013,07,15,00,45,13.80
2013,07,15,00,46,13.80
2013,07,15,00,47,13.70
2013,07,15,00,48,13.70
2013,07,15,00,49,13.70
2013,07,15,00,50,13.70
2013,07,15,00,51,13.70
2013,07,15,00,52,13.70
2013,07,15,00,53,13.70
2013,07,15,00,54,13.60
2013,07,15,00,55,13.60
2013,07,15,00,56,13.60
2013,07,15,00,57,13.60
2013,07,15,00,58,13.60
2013,07,15,00,59,13.50
2013,07,15,01,00,13.50
2013,07,15,01,01,13.40
2013,07,15,01,02,13.40
2013,07,15,01,03,13.40
2013,07,15,01,04,13.40
2013,07,15,01,05,13.40
2013,07,15,01,06,13.40
2013,07,15,01,07,13.30
2013,07,15,01,08,13.30
2013,07,15,01,09,13.30
2013,07,15,01,10,13.30
2013,07,15,01,11,13.30
2013,07,15,01,12,13.20
2013,07,15,01,13,13.20
2013,07,15,01,14,13.20
2013,07,15,01,15,13.20
2013,07,15,01,16,13.20
2013,07,15,01,17,13.20
2013,07,15,01,18,13.20
2013,07,15,01,19,13.20
2013,07,15,01,20,13.20
2013,07,15,01,21,13.20
2013,07,15,01,22,13.10
2013,07,15,01,23,13.10
2013,07,15,01,24,13.10
2013,07,15,01,25,13.10
2013,07,15,01,26,13.10
2013,07,15,01,27,13.00
2013,07,15,01,28,13.00
2013,07,15,01,29,13.00
2013,07,15,01,30,13.00
2013,07,15,01,31,13.00
2013,07,15,01,32,13.00
2013,07,15,01,33,13.00
2013,07,15,01,34,13.00
2013,07,15,01,35,13.00
2013,07,15,01,36,13.00
2013,07,15,01,37,13.00
2013,07,15,01,38,12.90
2013,07,15,01,39,12.90
2013,07,15,01,40,12.90
2013,07,15,01,41,12.90
2013,07,15,01,42,12.80
2013,07,15,01,43,12.80
2013,07,15,01,44,12.80
2013,07,15,01,45,12.80
2013,07,15,01,46,12.80
2013,07,15,01,47,12.80
2013,07,15,01,48,12.80
2013,07,15,01,49,12.80
2013,07,15,01,50,12.70
2013,07,15,01,51,12.70
2013,07,15,01,52,12.70
2013,07,15,01,53,12.70
2013,07,15,01,54,12.70
2013,07,15,01,55,12.70
2013,07,15,01,56,12.60
2013,07,15,01,57,12.60
2013,07,15,01,58,12.70
2013,07,15,01,59,12.60
2013,07,15,02,00,12.60
2013,07,15,02,01,12.60
2013,07,15,02,02,12.60
2013,07,15,02,03,12.60
2013,07,15,02,04,12.60
2013,07,15,02,05,12.50
2013,07,15,02,06,12.50
2013,07,15,02,07,12.50
2013,07,15,02,08,12.40
2013,07,15,02,09,12.40
2013,07,15,02,10,12.40
2013,07,15,02,11,12.40
2013,07,15,02,12,12.30
2013,07,15,02,13,12.30
2013,07,15,02,14,12.30
2013,07,15,02,15,12.30
2013,07,15,02,16,12.30
2013,07,15,02,17,12.30
2013,07,15,02,18,12.30
2013,07,15,02,19,12.20
2013,07,15,02,20,12.20
2013,07,15,02,21,12.10
2013,07,15,02,22,12.10
2013,07,15,02,23,12.10
2013,07,15,02,24,12.00
2013,07,15,02,25,12.00
2013,07,15,02,26,12.00
2013,07,15,02,27,11.90
2013,07,15,02,28,11.90
2013,07,15,02,29,11.90
2013,07,15,02,30,11.90
2013,07,15,02,31,11.90
2013,07,15,02,32,11.90
2013,07,15,02,33,11.90
2013,07,15,02,34,11.90
2013,07,15,02,35,11.90
2013,07,15,02,36,11.90
2013,07,15,02,37,11.90
2013,07,15,02,38,11.90
2013,07,15,02,39,11.90
2013,07,15,02,40,11.90
2013,07,15,02,41,11.80
2013,07,15,02,42,11.80
2013,07,15,02,43,11.80
2013,07,15,02,44,11.80
2013,07,15,02,45,11.80
2013,07,15,02,46,11.70
2013,07,15,02,47,11.70
2013,07,15,02,48,11.70
2013,07,15,02,49,11.70
2013,07,15,02,50,11.70
2013,07,15,02,51,11.70
2013,07,15,02,52,11.60
2013,07,15,02,53,11.60
2013,07,15,02,54,11.60
2013,07,15,02,55,11.60
2013,07,15,02,56,11.60
2013,07,15,02,57,11.60
2013,07,15,02,58,11.60
2013,07,15,02,59,11.60
2013,07,15,03,00,11.60
2013,07,15,03,01,11.50
2013,07,15,03,02,11.50
2013,07,15,03,03,11.50
2013,07,15,03,04,11.50
2013,07,15,03,05,11.50
2013,07,15,03,06,11.40
2013,07,15,03,07,11.40
2013,07,15,03,08,11.40
2013,07,15,03,09,11.40
2013,07,15,03,10,11.40
2013,07,15,03,11,11.40
2013,07,15,03,12,11.30
2013,07,15,03,13,11.30
2013,07,15,03,14,11.30
2013,07,15,03,15,11.30
2013,07,15,03,16,11.30
2013,07,15,03,17,11.30
2013,07,15,03,18,11.30
2013,07,15,03,19,11.30
2013,07,15,03,20,11.30
2013,07,15,03,21,11.30
2013,07,15,03,22,11.30
2013,07,15,03,23,11.30
2013,07,15,03,24,11.30
2013,07,15,03,25,11.20
2013,07,15,03,26,11.20
2013,07,15,03,27,11.20
2013,07,15,03,28,11.20
2013,07,15,03,29,11.20
2013,07,15,03,30,11.20
2013,07,15,03,31,11.20
2013,07,15,03,32,11.10
2013,07,15,03,33,11.10
2013,07,15,03,34,11.10
2013,07,15,03,35,11.10
2013,07,15,03,36,11.00
2013,07,15,03,37,11.00
2013,07,15,03,38,10.90
2013,07,15,03,39,10.90
2013,07,15,03,40,10.90
2013,07,15,03,41,10.90
2013,07,15,03,42,10.90
2013,07,15,03,43,10.90
2013,07,15,03,44,10.90
2013,07,15,03,45,10.80
2013,07,15,03,46,10.80
2013,07,15,03,47,10.80
2013,07,15,03,48,10.80
2013,07,15,03,49,10.80
2013,07,15,03,50,10.80
2013,07,15,03,51,10.80
2013,07,15,03,52,10.80
2013,07,15,03,53,10.80
2013,07,15,03,54,10.80
2013,07,15,03,55,10.80
2013,07,15,03,56,10.80
2013,07,15,03,57,10.80
2013,07,15,03,58,10.80
2013,07,15,03,59,10.70
2013,07,15,04,00,10.70
2013,07,15,04,01,10.70
2013,07,15,04,02,10.70
2013,07,15,04,03,10.70
2013,07,15,04,04,10.70
2013,07,15,04,05,10.70
2013,07,15,04,06,10.70
2013,07,15,04,07,10.70
2013,07,15,04,08,10.70
2013,07,15,04,09,10.70
2013,07,15,04,10,10.70
2013,07,15,04,11,10.70
2013,07,15,04,12,10.70
2013,07,15,04,13,10.70
2013,07,15,04,14,10.70
2013,07,15,04,15,10.70
2013,07,15,04,16,10.70
2013,07,15,04,17,10.70
2013,07,15,04,18,10.70
2013,07,15,04,19,10.70
2013,07,15,04,20,10.70
2013,07,15,04,21,10.60
2013,07,15,04,22,10.60
2013,07,15,04,23,10.60
2013,07,15,04,24,10.60
2013,07,15,04,25,10.60
2013,07,15,04,26,10.60
2013,07,15,04,27,10.60
2013,07,15,04,28,10.60
2013,07,15,04,29,10.60
2013,07,15,04,30,10.60
2013,07,15,04,31,10.60
2013,07,15,04,32,10.60
2013,07,15,04,33,10.50
2013,07,15,04,34,10.50
2013,07,15,04,35,10.50
2013,07,15,04,36,10.50
2013,07,15,04,37,10.40
2013,07,15,04,38,10.40
2013,07,15,04,39,10.40
2013,07,15,04,40,10.40
2013,07,15,04,41,10.40
2013,07,15,04,42,10.40
2013,07,15,04,43,10.40
2013,07,15,04,44,10.40
2013,07,15,04,45,10.40
2013,07,15,04,46,10.40
2013,07,15,04,47,10.40
2013,07,15,04,48,10.40
2013,07,15,04,49,10.30
2013,07,15,04,50,10.30
2013,07,15,04,51,10.30
2013,07,15,04,52,10.30
2013,07,15,04,53,10.30
2013,07,15,04,54,10.30
2013,07,15,04,55,10.30
2013,07,15,04,56,10.40
2013,07,15,04,57,10.40
2013,07,15,04,58,10.40
2013,07,15,04,59,10.40
2013,07,15,05,00,10.40
2013,07,15,05,01,10.40
2013,07,15,05,02,10.40
2013,07,15,05,03,10.40
2013,07,15,05,04,10.50
2013,07,15,05,05,10.50
2013,07,15,05,06,10.50
2013,07,15,05,07,10.40
2013,07,15,05,08,10.40
2013,07,15,05,09,10.40
2013,07,15,05,10,10.40
2013,07,15,05,11,10.40
2013,07,15,05,12,10.40
2013,07,15,05,13,10.30
2013,07,15,05,14,10.30
2013,07,15,05,15,10.30
2013,07,15,05,16,10.30
2013,07,15,05,17,10.30
2013,07,15,05,18,10.30
2013,07,15,05,19,10.30
2013,07,15,05,20,10.30
2013,07,15,05,21,10.30
2013,07,15,05,22,10.30
2013,07,15,05,23,10.30
2013,07,15,05,24,10.30
2013,07,15,05,25,10.30
2013,07,15,05,26,10.30
2013,07,15,05,27,10.30
2013,07,15,05,28,10.30
2013,07,15,05,29,10.30
2013,07,15,05,30,10.30
2013,07,15,05,31,10.30
2013,07,15,05,32,10.30
2013,07,15,05,33,10.30
2013,07,15,05,34,10.30
2013,07,15,05,35,10.30
2013,07,15,05,36,10.30
2013,07,15,05,37,10.30
2013,07,15,05,38,10.20
2013,07,15,05,39,10.20
2013,07,15,05,40,10.20
2013,07,15,05,41,10.20
2013,07,15,05,42,10.20
2013,07,15,05,43,10.10
2013,07,15,05,44,10.10
2013,07,15,05,45,10.10
2013,07,15,05,46,10.10
2013,07,15,05,47,10.10
2013,07,15,05,48,10.10
2013,07,15,05,49,10.10
2013,07,15,05,50,10.10
2013,07,15,05,51,10.10
2013,07,15,05,52,10.10
2013,07,15,05,53,10.10
2013,07,15,05,54,10.20
2013,07,15,05,55,10.20
2013,07,15,05,56,10.20
2013,07,15,05,57,10.20
2013,07,15,05,58,10.20
2013,07,15,05,59,10.30
2013,07,15,06,00,10.30
2013,07,15,06,01,10.30
2013,07,15,06,02,10.30
2013,07,15,06,03,10.30
2013,07,15,06,04,10.40
2013,07,15,06,05,10.40
2013,07,15,06,06,10.50
2013,07,15,06,07,10.50
2013,07,15,06,08,10.50
2013,07,15,06,09,10.60
2013,07,15,06,10,10.60
2013,07,15,06,11,10.70
2013,07,15,06,12,10.70
2013,07,15,06,13,10.70
2013,07,15,06,14,10.80
2013,07,15,06,15,10.80
2013,07,15,06,16,10.80
2013,07,15,06,17,10.90
2013,07,15,06,18,10.90
2013,07,15,06,19,11.00
2013,07,15,06,20,11.10
2013,07,15,06,21,11.10
2013,07,15,06,22,11.20
2013,07,15,06,23,11.20
2013,07,15,06,24,11.30
2013,07,15,06,25,11.30
2013,07,15,06,26,11.40
2013,07,15,06,27,11.50
2013,07,15,06,28,11.50
2013,07,15,06,29,11.60
2013,07,15,06,30,11.70
2013,07,15,06,31,11.70
2013,07,15,06,32,11.80
2013,07,15,06,33,11.80
2013,07,15,06,34,11.90
2013,07,15,06,35,12.00
2013,07,15,06,36,12.00
2013,07,15,06,37,12.10
2013,07,15,06,38,12.10
2013,07,15,06,39,12.20
2013,07,15,06,40,12.30
2013,07,15,06,41,12.40
2013,07,15,06,42,12.50
2013,07,15,06,43,12.60
2013,07,15,06,44,12.70
2013,07,15,06,45,12.80
2013,07,15,06,46,12.90
2013,07,15,06,47,13.00
2013,07,15,06,48,13.10
2013,07,15,06,49,13.10
2013,07,15,06,50,13.20
2013,07,15,06,51,13.20
2013,07,15,06,52,13.30
2013,07,15,06,53,13.30
2013,07,15,06,54,13.40
2013,07,15,06,55,13.40
2013,07,15,06,56,13.50
2013,07,15,06,57,13.60
2013,07,15,06,58,13.60
2013,07,15,06,59,13.70
2013,07,15,07,00,13.70
2013,07,15,07,01,13.80
2013,07,15,07,02,13.80
2013,07,15,07,03,13.90
2013,07,15,07,04,14.00
2013,07,15,07,05,14.00
2013,07,15,07,06,14.10
2013,07,15,07,07,14.10
2013,07,15,07,08,14.10
2013,07,15,07,09,14.20
2013,07,15,07,10,14.20
2013,07,15,07,11,14.20
2013,07,15,07,12,14.20
2013,07,15,07,13,14.30
2013,07,15,07,14,14.30
2013,07,15,07,15,14.40
2013,07,15,07,16,14.50
2013,07,15,07,17,14.60
2013,07,15,07,18,14.70
2013,07,15,07,19,14.70
2013,07,15,07,20,14.80
2013,07,15,07,21,14.90
2013,07,15,07,22,15.00
2013,07,15,07,23,15.00
2013,07,15,07,24,15.10
2013,07,15,07,25,15.20
2013,07,15,07,26,15.20
2013,07,15,07,27,15.30
2013,07,15,07,28,15.40
2013,07,15,07,29,15.50
2013,07,15,07,30,15.60
2013,07,15,07,31,15.60
2013,07,15,07,32,15.70
2013,07,15,07,33,15.70
2013,07,15,07,34,15.80
2013,07,15,07,35,15.90
2013,07,15,07,36,15.90
2013,07,15,07,37,15.90
2013,07,15,07,38,16.00
2013,07,15,07,39,16.00
2013,07,15,07,40,16.10
2013,07,15,07,41,16.10
2013,07,15,07,42,16.20
2013,07,15,07,43,16.20
2013,07,15,07,44,16.30
2013,07,15,07,45,16.30
2013,07,15,07,46,16.40
2013,07,15,07,47,16.40
2013,07,15,07,48,16.40
2013,07,15,07,49,16.50
2013,07,15,07,50,16.50
2013,07,15,07,51,16.60
2013,07,15,07,52,16.70
2013,07,15,07,53,16.70
2013,07,15,07,54,16.80
2013,07,15,07,55,16.90
2013,07,15,07,56,17.00
2013,07,15,07,57,17.10
2013,07,15,07,58,17.20
2013,07,15,07,59,17.20
2013,07,15,08,00,17.30
2013,07,15,08,01,17.30
2013,07,15,08,02,17.30
2013,07,15,08,03,17.40
2013,07,15,08,04,17.40
2013,07,15,08,05,17.40
2013,07,15,08,06,17.50
2013,07,15,08,07,17.60
2013,07,15,08,08,17.60
2013,07,15,08,09,17.70
2013,07,15,08,10,17.80
2013,07,15,08,11,17.90
2013,07,15,08,12,17.90
2013,07,15,08,13,18.00
2013,07,15,08,14,18.10
2013,07,15,08,15,18.10
2013,07,15,08,16,18.20
2013,07,15,08,17,18.20
2013,07,15,08,18,18.30
2013,07,15,08,19,18.30
2013,07,15,08,20,18.40
2013,07,15,08,21,18.40
2013,07,15,08,22,18.40
2013,07,15,08,23,18.40
2013,07,15,08,24,18.40
2013,07,15,08,25,18.50
2013,07,15,08,26,18.50
2013,07,15,08,27,18.60
2013,07,15,08,28,18.70
2013,07,15,08,29,18.80
2013,07,15,08,30,18.90
2013,07,15,08,31,18.90
2013,07,15,08,32,19.00
2013,07,15,08,33,19.10
2013,07,15,08,34,19.20
2013,07,15,08,35,19.20
2013,07,15,08,36,19.30
2013,07,15,08,37,19.40
2013,07,15,08,38,19.40
2013,07,15,08,39,19.50
2013,07,15,08,40,19.60
2013,07,15,08,41,19.60
2013,07,15,08,42,19.70
2013,07,15,08,43,19.80
2013,07,15,08,44,19.90
2013,07,15,08,45,20.00
2013,07,15,08,46,20.10
2013,07,15,08,47,20.20
2013,07,15,08,48,20.20
2013,07,15,08,49,20.20
2013,07,15,08,50,20.20
2013,07,15,08,51,20.20
2013,07,15,08,52,20.20
2013,07,15,08,53,20.10
2013,07,15,08,54,20.00
2013,07,15,08,55,19.90
2013,07,15,08,56,19.80
2013,07,15,08,57,19.70
2013,07,15,08,58,19.60
2013,07,15,08,59,19.60
2013,07,15,09,00,19.50
2013,07,15,09,01,19.50
2013,07,15,09,02,19.40
2013,07,15,09,03,19.40
2013,07,15,09,04,19.40
2013,07,15,09,05,19.50
2013,07,15,09,06,19.50
2013,07,15,09,07,19.60
2013,07,15,09,08,19.60
2013,07,15,09,09,19.60
2013,07,15,09,10,19.60
2013,07,15,09,11,19.60
2013,07,15,09,12,19.60
2013,07,15,09,13,19.70
2013,07,15,09,14,19.90
2013,07,15,09,15,20.00
2013,07,15,09,16,20.20
2013,07,15,09,17,20.30
2013,07,15,09,18,20.50
2013,07,15,09,19,20.60
2013,07,15,09,20,20.70
2013,07,15,09,21,20.80
2013,07,15,09,22,20.90
2013,07,15,09,23,20.90
2013,07,15,09,24,20.90
2013,07,15,09,25,20.80
2013,07,15,09,26,20.80
2013,07,15,09,27,20.70
2013,07,15,09,28,20.70
2013,07,15,09,29,20.70
2013,07,15,09,30,20.60
2013,07,15,09,31,20.60
2013,07,15,09,32,20.70
2013,07,15,09,33,20.70
2013,07,15,09,34,20.80
2013,07,15,09,35,20.90
2013,07,15,09,36,21.00
2013,07,15,09,37,21.10
2013,07,15,09,38,21.30
2013,07,15,09,39,21.30
2013,07,15,09,40,21.40
2013,07,15,09,41,21.40
2013,07,15,09,42,21.30
2013,07,15,09,43,21.30
2013,07,15,09,44,21.20
2013,07,15,09,45,21.20
2013,07,15,09,46,21.10
2013,07,15,09,47,21.10
2013,07,15,09,48,21.20
2013,07,15,09,49,21.20
2013,07,15,09,50,21.30
2013,07,15,09,51,21.30
2013,07,15,09,52,21.40
2013,07,15,09,53,21.40
2013,07,15,09,54,21.40
2013,07,15,09,55,21.50
2013,07,15,09,56,21.50
2013,07,15,09,57,21.60
2013,07,15,09,58,21.70
2013,07,15,09,59,21.70
2013,07,15,10,00,21.60
2013,07,15,10,01,21.60
2013,07,15,10,02,21.50
2013,07,15,10,03,21.40
2013,07,15,10,04,21.30
2013,07,15,10,05,21.10
2013,07,15,10,06,21.00
2013,07,15,10,07,20.80
2013,07,15,10,08,20.80
2013,07,15,10,09,20.70
2013,07,15,10,10,20.70
2013,07,15,10,11,20.70
2013,07,15,10,12,20.70
2013,07,15,10,13,20.70
2013,07,15,10,14,20.70
2013,07,15,10,15,20.70
2013,07,15,10,16,20.70
2013,07,15,10,17,20.60
2013,07,15,10,18,20.60
2013,07,15,10,19,20.50
2013,07,15,10,20,20.50
2013,07,15,10,21,20.50
2013,07,15,10,22,20.50
2013,07,15,10,23,20.60
2013,07,15,10,24,20.60
2013,07,15,10,25,20.70
2013,07,15,10,26,20.70
2013,07,15,10,27,20.80
2013,07,15,10,28,20.90
2013,07,15,10,29,20.90
2013,07,15,10,30,20.90
2013,07,15,10,31,21.00
2013,07,15,10,32,21.00
2013,07,15,10,33,21.20
2013,07,15,10,34,21.30
2013,07,15,10,35,21.30
2013,07,15,10,36,21.40
2013,07,15,10,37,21.60
2013,07,15,10,38,21.70
2013,07,15,10,39,21.80
2013,07,15,10,40,21.80
2013,07,15,10,41,21.80
2013,07,15,10,42,21.90
2013,07,15,10,43,21.90
2013,07,15,10,44,22.00
2013,07,15,10,45,22.00
2013,07,15,10,46,22.00
2013,07,15,10,47,22.00
2013,07,15,10,48,22.10
2013,07,15,10,49,22.20
2013,07,15,10,50,22.20
2013,07,15,10,51,22.20
2013,07,15,10,52,22.20
2013,07,15,10,53,22.00
2013,07,15,10,54,22.00
2013,07,15,10,55,22.00
2013,07,15,10,56,22.00
2013,07,15,10,57,22.00
2013,07,15,10,58,22.00
2013,07,15,10,59,22.10
2013,07,15,11,00,22.10
2013,07,15,11,01,22.20
2013,07,15,11,02,22.20
2013,07,15,11,03,22.30
2013,07,15,11,04,22.30
2013,07,15,11,05,22.30
2013,07,15,11,06,22.20
2013,07,15,11,07,22.10
2013,07,15,11,08,22.00
2013,07,15,11,09,22.00
2013,07,15,11,10,22.10
2013,07,15,11,11,22.10
2013,07,15,11,12,22.20
2013,07,15,11,13,22.30
2013,07,15,11,14,22.20
2013,07,15,11,15,22.20
2013,07,15,11,16,22.10
2013,07,15,11,17,22.20
2013,07,15,11,18,22.30
2013,07,15,11,19,22.30
2013,07,15,11,20,22.40
2013,07,15,11,21,22.40
2013,07,15,11,22,22.50
2013,07,15,11,23,22.60
2013,07,15,11,24,22.60
2013,07,15,11,25,22.50
2013,07,15,11,26,22.40
2013,07,15,11,27,22.30
2013,07,15,11,28,22.20
2013,07,15,11,29,22.20
2013,07,15,11,30,22.20
2013,07,15,11,31,22.10
2013,07,15,11,32,22.10
2013,07,15,11,33,22.20
2013,07,15,11,34,22.30
2013,07,15,11,35,22.30
2013,07,15,11,36,22.30
2013,07,15,11,37,22.30
2013,07,15,11,38,22.20
2013,07,15,11,39,22.20
2013,07,15,11,40,22.20
2013,07,15,11,41,22.20
2013,07,15,11,42,22.30
2013,07,15,11,43,22.30
2013,07,15,11,44,22.30
2013,07,15,11,45,22.30
2013,07,15,11,46,22.30
2013,07,15,11,47,22.40
2013,07,15,11,48,22.50
2013,07,15,11,49,22.60
2013,07,15,11,50,22.60
2013,07,15,11,51,22.60
2013,07,15,11,52,22.60
2013,07,15,11,53,22.60
2013,07,15,11,54,22.60
2013,07,15,11,55,22.70
2013,07,15,11,56,22.70
2013,07,15,11,57,22.70
2013,07,15,11,58,22.80
2013,07,15,11,59,22.80
2013,07,15,12,00,22.80
2013,07,15,12,01,22.70
2013,07,15,12,02,22.70
2013,07,15,12,03,22.80
2013,07,15,12,04,23.00
2013,07,15,12,05,23.10
2013,07,15,12,06,23.10
2013,07,15,12,07,23.10
2013,07,15,12,08,23.10
2013,07,15,12,09,23.00
2013,07,15,12,10,23.00
2013,07,15,12,11,22.90
2013,07,15,12,12,22.90
2013,07,15,12,13,22.90
2013,07,15,12,14,23.00
2013,07,15,12,15,23.20
2013,07,15,12,16,23.40
2013,07,15,12,17,23.50
2013,07,15,12,18,23.60
2013,07,15,12,19,23.50
2013,07,15,12,20,23.40
2013,07,15,12,21,23.30
2013,07,15,12,22,23.20
2013,07,15,12,23,23.20
2013,07,15,12,24,23.30
2013,07,15,12,25,23.40
2013,07,15,12,26,23.50
2013,07,15,12,27,23.60
2013,07,15,12,28,23.60
2013,07,15,12,29,23.70
2013,07,15,12,30,23.70
2013,07,15,12,31,23.60
2013,07,15,12,32,23.60
2013,07,15,12,33,23.70
2013,07,15,12,34,23.60
2013,07,15,12,35,23.70
2013,07,15,12,36,23.70
2013,07,15,12,37,23.70
2013,07,15,12,38,23.70
2013,07,15,12,39,23.70
2013,07,15,12,40,23.70
2013,07,15,12,41,23.70
2013,07,15,12,42,23.70
2013,07,15,12,43,23.80
2013,07,15,12,44,23.80
2013,07,15,12,45,23.80
2013,07,15,12,46,23.80
2013,07,15,12,47,23.90
2013,07,15,12,48,24.00
2013,07,15,12,49,24.00
2013,07,15,12,50,24.10
2013,07,15,12,51,24.20
2013,07,15,12,52,24.20
2013,07,15,12,53,24.30
2013,07,15,12,54,24.50
2013,07,15,12,55,24.50
2013,07,15,12,56,24.40
2013,07,15,12,57,24.40
2013,07,15,12,58,24.40
2013,07,15,12,59,24.30
2013,07,15,13,00,24.40
2013,07,15,13,01,24.40
2013,07,15,13,02,24.50
2013,07,15,13,03,24.50
2013,07,15,13,04,24.50
2013,07,15,13,05,24.50
2013,07,15,13,06,24.40
2013,07,15,13,07,24.30
2013,07,15,13,08,24.20
2013,07,15,13,09,24.00
2013,07,15,13,10,24.00
2013,07,15,13,11,23.90
2013,07,15,13,12,23.90
2013,07,15,13,13,24.00
2013,07,15,13,14,24.00
2013,07,15,13,15,24.10
2013,07,15,13,16,24.10
2013,07,15,13,17,24.20
2013,07,15,13,18,24.20
2013,07,15,13,19,24.20
2013,07,15,13,20,24.20
2013,07,15,13,21,24.20
2013,07,15,13,22,24.30
2013,07,15,13,23,24.30
2013,07,15,13,24,24.40
2013,07,15,13,25,24.40
2013,07,15,13,26,24.40
2013,07,15,13,27,24.40
2013,07,15,13,28,24.50
2013,07,15,13,29,24.50
2013,07,15,13,30,24.50
2013,07,15,13,31,24.50
2013,07,15,13,32,24.50
2013,07,15,13,33,24.50
2013,07,15,13,34,24.50
2013,07,15,13,35,24.50
2013,07,15,13,36,24.60
2013,07,15,13,37,24.60
2013,07,15,13,38,24.70
2013,07,15,13,39,24.70
2013,07,15,13,40,24.70
2013,07,15,13,41,24.60
2013,07,15,13,42,24.50
2013,07,15,13,43,24.30
2013,07,15,13,44,24.10
2013,07,15,13,45,24.00
2013,07,15,13,46,23.80
2013,07,15,13,47,23.70
2013,07,15,13,48,23.70
2013,07,15,13,49,23.70
2013,07,15,13,50,23.70
2013,07,15,13,51,23.70
2013,07,15,13,52,23.70
2013,07,15,13,53,23.80
2013,07,15,13,54,23.80
2013,07,15,13,55,23.80
2013,07,15,13,56,23.90
2013,07,15,13,57,24.00
2013,07,15,13,58,24.00
2013,07,15,13,59,24.10
2013,07,15,14,00,24.20
2013,07,15,14,01,24.30
2013,07,15,14,02,24.40
2013,07,15,14,03,24.40
2013,07,15,14,04,24.50
2013,07,15,14,05,24.60
2013,07,15,14,06,24.60
2013,07,15,14,07,24.70
2013,07,15,14,08,24.80
2013,07,15,14,09,24.80
2013,07,15,14,10,24.80
2013,07,15,14,11,24.90
2013,07,15,14,12,24.90
2013,07,15,14,13,25.00
2013,07,15,14,14,25.10
2013,07,15,14,15,25.20
2013,07,15,14,16,25.30
2013,07,15,14,17,25.40
2013,07,15,14,18,25.40
2013,07,15,14,19,25.50
2013,07,15,14,20,25.50
2013,07,15,14,21,25.60
2013,07,15,14,22,25.60
2013,07,15,14,23,25.60
2013,07,15,14,24,25.70
2013,07,15,14,25,25.70
2013,07,15,14,26,25.60
2013,07,15,14,27,25.60
2013,07,15,14,28,25.50
2013,07,15,14,29,25.40
2013,07,15,14,30,25.30
2013,07,15,14,31,25.20
2013,07,15,14,32,25.10
2013,07,15,14,33,25.00
2013,07,15,14,34,24.80
2013,07,15,14,35,24.80
2013,07,15,14,36,24.70
2013,07,15,14,37,24.70
2013,07,15,14,38,24.60
2013,07,15,14,39,24.60
2013,07,15,14,40,24.60
2013,07,15,14,41,24.70
2013,07,15,14,42,24.80
2013,07,15,14,43,24.80
2013,07,15,14,44,24.80
2013,07,15,14,45,24.80
2013,07,15,14,46,24.80
2013,07,15,14,47,24.90
2013,07,15,14,48,24.90
2013,07,15,14,49,25.00
2013,07,15,14,50,25.10
2013,07,15,14,51,25.10
2013,07,15,14,52,25.20
2013,07,15,14,53,25.20
2013,07,15,14,54,25.20
2013,07,15,14,55,25.10
2013,07,15,14,56,25.10
2013,07,15,14,57,25.10
2013,07,15,14,58,25.10
2013,07,15,14,59,25.20
2013,07,15,15,00,25.20
2013,07,15,15,01,25.20
2013,07,15,15,02,25.30
2013,07,15,15,03,25.20
2013,07,15,15,04,25.10
2013,07,15,15,05,24.90
2013,07,15,15,06,24.80
2013,07,15,15,07,24.80
2013,07,15,15,08,24.70
2013,07,15,15,09,24.70
2013,07,15,15,10,24.70
2013,07,15,15,11,24.60
2013,07,15,15,12,24.60
2013,07,15,15,13,24.70
2013,07,15,15,14,24.70
2013,07,15,15,15,24.70
2013,07,15,15,16,24.70
2013,07,15,15,17,24.70
2013,07,15,15,18,24.70
2013,07,15,15,19,24.70
2013,07,15,15,20,24.70
2013,07,15,15,21,24.70
2013,07,15,15,22,24.80
2013,07,15,15,23,24.80
2013,07,15,15,24,24.90
2013,07,15,15,25,24.90
2013,07,15,15,26,25.00
2013,07,15,15,27,25.00
2013,07,15,15,28,25.10
2013,07,15,15,29,25.10
2013,07,15,15,30,25.10
2013,07,15,15,31,25.20
2013,07,15,15,32,25.20
2013,07,15,15,33,25.30
2013,07,15,15,34,25.40
2013,07,15,15,35,25.50
2013,07,15,15,36,25.60
2013,07,15,15,37,25.60
2013,07,15,15,38,25.60
2013,07,15,15,39,25.60
2013,07,15,15,40,25.60
2013,07,15,15,41,25.70
2013,07,15,15,42,25.70
2013,07,15,15,43,25.80
2013,07,15,15,44,25.90
2013,07,15,15,45,25.90
2013,07,15,15,46,26.00
2013,07,15,15,47,26.10
2013,07,15,15,48,26.20
2013,07,15,15,49,26.30
2013,07,15,15,50,26.30
2013,07,15,15,51,26.30
2013,07,15,15,52,26.30
2013,07,15,15,53,26.30
2013,07,15,15,54,26.30
2013,07,15,15,55,26.30
2013,07,15,15,56,26.30
2013,07,15,15,57,26.30
2013,07,15,15,58,26.20
2013,07,15,15,59,26.20
2013,07,15,16,00,26.20
2013,07,15,16,01,26.30
2013,07,15,16,02,26.30
2013,07,15,16,03,26.30
2013,07,15,16,04,26.20
2013,07,15,16,05,26.20
2013,07,15,16,06,26.30
2013,07,15,16,07,26.40
2013,07,15,16,08,26.40
2013,07,15,16,09,26.40
2013,07,15,16,10,26.40
2013,07,15,16,11,26.40
2013,07,15,16,12,26.40
2013,07,15,16,13,26.40
2013,07,15,16,14,26.30
2013,07,15,16,15,26.30
2013,07,15,16,16,26.30
2013,07,15,16,17,26.40
2013,07,15,16,18,26.50
2013,07,15,16,19,26.60
2013,07,15,16,20,26.70
2013,07,15,16,21,26.70
2013,07,15,16,22,26.80
2013,07,15,16,23,26.70
2013,07,15,16,24,26.60
2013,07,15,16,25,26.60
2013,07,15,16,26,26.50
2013,07,15,16,27,26.50
2013,07,15,16,28,26.50
2013,07,15,16,29,26.40
2013,07,15,16,30,26.30
2013,07,15,16,31,26.30
2013,07,15,16,32,26.30
2013,07,15,16,33,26.30
2013,07,15,16,34,26.40
2013,07,15,16,35,26.40
2013,07,15,16,36,26.50
2013,07,15,16,37,26.50
2013,07,15,16,38,26.60
2013,07,15,16,39,26.60
2013,07,15,16,40,26.60
2013,07,15,16,41,26.60
2013,07,15,16,42,26.60
2013,07,15,16,43,26.60
2013,07,15,16,44,26.70
2013,07,15,16,45,26.80
2013,07,15,16,46,26.70
2013,07,15,16,47,26.60
2013,07,15,16,48,26.60
2013,07,15,16,49,26.60
2013,07,15,16,50,26.60
2013,07,15,16,51,26.70
2013,07,15,16,52,26.70
2013,07,15,16,53,26.70
2013,07,15,16,54,26.60
2013,07,15,16,55,26.60
2013,07,15,16,56,26.60
2013,07,15,16,57,26.60
2013,07,15,16,58,26.70
2013,07,15,16,59,26.80
2013,07,15,17,00,26.90
2013,07,15,17,01,27.00
2013,07,15,17,02,27.10
2013,07,15,17,03,27.10
2013,07,15,17,04,27.20
2013,07,15,17,05,27.20
2013,07,15,17,06,27.10
2013,07,15,17,07,27.10
2013,07,15,17,08,27.00
2013,07,15,17,09,26.90
2013,07,15,17,10,26.90
2013,07,15,17,11,26.80
2013,07,15,17,12,26.70
2013,07,15,17,13,26.70
2013,07,15,17,14,26.70
2013,07,15,17,15,26.70
2013,07,15,17,16,26.70
2013,07,15,17,17,26.70
2013,07,15,17,18,26.70
2013,07,15,17,19,26.80